Time,TemperatureF,DewpointF,PressureIn,WindDirection,WindDirectionDegrees,WindSpeedMPH,WindSpeedGustMPH,Humidity,HourlyPrecipIn,Conditions,Clouds,dailyrainin,SoftwareType,DateUTC
2013-09-21 00:11:00,69.1,59.0,29.79,SW,216,8.0,-999.0,70,-99.99,,,0.00,weatherlink.com 1.10,2013-09-21 04:11:00,
2013-09-21 00:26:00,69.0,59.0,29.78,South,178,21.0,-999.0,70,-99.99,,,0.00,weatherlink.com 1.10,2013-09-21 04:26:00,
2013-09-21 00:41:00,68.8,59.0,29.78,SSW,207,13.0,-999.0,71,-99.99,,,0.00,weatherlink.com 1.10,2013-09-21 04:41:00,
2013-09-21 00:56:00,68.6,59.0,29.78,SW,225,9.0,-999.0,71,-99.99,,,0.00,weatherlink.com 1.10,2013-09-21 04:56:00,
2013-09-21 01:11:00,68.3,59.0,29.77,SSW,196,7.0,-999.0,72,-99.99,,,0.00,weatherlink.com 1.10,2013-09-21 05:11:00,
2013-09-21 01:26:00,68.1,59.0,29.76,SW,227,11.0,-999.0,73,-99.99,,,0.00,weatherlink.com 1.10,2013-09-21 05:26:00,
2013-09-21 01:41:00,67.9,59.0,29.76,South,184,11.0,-999.0,74,-99.99,,,0.00,weatherlink.com 1.10,2013-09-21 05:41:00,
2013-09-21 01:56:00,67.5,59.0,29.76,SW,236,4.0,-999.0,74,-99.99,,,0.00,weatherlink.com 1.10,2013-09-21 05:56:00,
2013-09-21 02:11:00,67.6,59.0,29.76,SSW,209,6.0,-999.0,74,-99.99,,,0.00,weatherlink.com 1.10,2013-09-21 06:11:00,
2013-09-21 02:26:00,67.3,59.0,29.75,WNW,296,4.0,-999.0,75,-99.99,,,0.00,weatherlink.com 1.10,2013-09-21 06:26:00,
2013-09-21 02:41:00,67.0,59.0,29.75,SSW,196,10.0,-999.0,76,-99.99,,,0.00,weatherlink.com 1.10,2013-09-21 06:41:00,
2013-09-21 02:56:00,66.7,59.0,29.75,WSW,240,9.0,-999.0,77,-99.99,,,0.00,weatherlink.com 1.10,2013-09-21 06:56:00,
2013-09-21 03:11:00,66.6,59.0,29.75,SSW,196,12.0,-999.0,77,-99.99,,,0.00,weatherlink.com 1.10,2013-09-21 07:11:00,
2013-09-21 03:26:00,66.4,59.0,29.74,SW,232,9.0,-999.0,78,-99.99,,,0.00,weatherlink.com 1.10,2013-09-21 07:26:00,
2013-09-21 03:41:00,66.2,59.0,29.73,WSW,245,2.0,-999.0,78,-99.99,,,0.00,weatherlink.com 1.10,2013-09-21 07:41:00,
2013-09-21 03:56:00,66.1,59.0,29.73,SW,225,13.0,-999.0,78,-99.99,,,0.00,weatherlink.com 1.10,2013-09-21 07:56:00,
2013-09-21 04:11:00,66.2,59.0,29.73,SSW,211,15.0,-999.0,78,-99.99,,,0.00,weatherlink.com 1.10,2013-09-21 08:11:00,
2013-09-21 04:26:00,66.2,59.0,29.72,SSW,208,8.0,-999.0,78,-99.99,,,0.00,weatherlink.com 1.10,2013-09-21 08:26:00,
2013-09-21 04:41:00,66.3,59.0,29.72,WSW,248,6.0,-999.0,78,-99.99,,,0.00,weatherlink.com 1.10,2013-09-21 08:41:00,
2013-09-21 05:11:00,66.3,59.0,29.71,WSW,250,10.0,-999.0,78,-99.99,,,0.00,weatherlink.com 1.10,2013-09-21 09:11:00,
2013-09-21 05:56:00,66.2,60.0,29.70,WSW,240,14.0,-999.0,79,-99.99,,,0.00,weatherlink.com 1.10,2013-09-21 09:56:00,
2013-09-21 06:11:00,66.0,59.0,29.70,SW,224,16.0,-999.0,79,-99.99,,,0.00,weatherlink.com 1.10,2013-09-21 10:11:00,
2013-09-21 06:26:00,65.9,60.0,29.70,SSW,213,6.0,-999.0,80,-99.99,,,0.00,weatherlink.com 1.10,2013-09-21 10:26:00,
2013-09-21 06:56:00,65.7,60.0,29.69,SW,217,9.0,-999.0,81,-99.99,,,0.00,weatherlink.com 1.10,2013-09-21 10:56:00,
2013-09-21 07:26:00,65.7,60.0,29.70,SSW,213,3.0,-999.0,82,-99.99,,,0.00,weatherlink.com 1.10,2013-09-21 11:26:00,
2013-09-21 07:41:00,65.8,60.0,29.68,WSW,248,3.0,-999.0,82,-99.99,,,0.00,weatherlink.com 1.10,2013-09-21 11:41:00,
2013-09-21 07:56:00,65.9,60.0,29.68,South,177,12.0,-999.0,82,-99.99,,,0.00,weatherlink.com 1.10,2013-09-21 11:56:00,
2013-09-21 08:11:00,66.3,60.0,29.67,WSW,240,0.0,-999.0,81,-99.99,,,0.00,weatherlink.com 1.10,2013-09-21 12:11:00,
2013-09-21 08:26:00,66.5,61.0,29.67,SW,229,9.0,-999.0,82,-99.99,,,0.00,weatherlink.com 1.10,2013-09-21 12:26:00,
2013-09-21 08:41:00,66.8,61.0,29.66,SW,231,9.0,-999.0,81,-99.99,,,0.00,weatherlink.com 1.10,2013-09-21 12:41:00,
2013-09-21 09:11:00,67.6,62.0,29.66,SSW,194,5.0,-999.0,81,-99.99,,,0.00,weatherlink.com 1.10,2013-09-21 13:11:00,
2013-09-21 09:26:00,68.4,62.0,29.66,WSW,240,14.0,-999.0,80,-99.99,,,0.00,weatherlink.com 1.10,2013-09-21 13:26:00,
2013-09-21 09:41:00,68.7,62.0,29.66,West,269,18.0,-999.0,79,-99.99,,,0.00,weatherlink.com 1.10,2013-09-21 13:41:00,
2013-09-21 09:57:00,68.7,62.0,29.65,SSW,192,10.0,-999.0,79,-99.99,,,0.00,weatherlink.com 1.10,2013-09-21 13:57:00,
2013-09-21 10:27:00,68.7,62.0,29.63,SSW,210,14.0,-999.0,79,-99.99,,,0.00,weatherlink.com 1.10,2013-09-21 14:27:00,
2013-09-21 10:57:00,69.3,62.0,29.62,SSW,213,10.0,-999.0,78,-99.99,,,0.00,weatherlink.com 1.10,2013-09-21 14:57:00,
2013-09-21 11:12:00,69.4,62.0,29.62,SW,214,14.0,-999.0,78,-99.99,,,0.00,weatherlink.com 1.10,2013-09-21 15:12:00,
2013-09-21 11:27:00,69.1,62.0,29.62,SW,215,12.0,-999.0,78,-99.99,,,0.00,weatherlink.com 1.10,2013-09-21 15:27:00,
2013-09-21 11:42:00,69.3,62.0,29.62,SW,225,16.0,-999.0,78,-99.99,,,0.00,weatherlink.com 1.10,2013-09-21 15:42:00,
2013-09-21 11:57:00,69.4,62.0,29.60,SW,225,12.0,-999.0,78,-99.99,,,0.00,weatherlink.com 1.10,2013-09-21 15:57:00,
2013-09-21 12:12:00,67.6,62.0,29.60,South,182,4.0,-999.0,82,-99.99,,,0.08,weatherlink.com 1.10,2013-09-21 16:12:00,
2013-09-21 12:27:00,67.1,63.0,29.60,SW,221,10.0,-999.0,85,-99.99,,,0.09,weatherlink.com 1.10,2013-09-21 16:27:00,
2013-09-21 12:42:00,67.7,63.0,29.60,SSW,196,5.0,-999.0,85,-99.99,,,0.09,weatherlink.com 1.10,2013-09-21 16:42:00,
2013-09-21 12:57:00,68.5,63.0,29.59,South,190,7.0,-999.0,82,-99.99,,,0.09,weatherlink.com 1.10,2013-09-21 16:57:00,
2013-09-21 13:12:00,69.2,63.0,29.58,WSW,246,10.0,-999.0,80,-99.99,,,0.09,weatherlink.com 1.10,2013-09-21 17:12:00,
2013-09-21 13:27:00,69.6,62.0,29.58,SW,228,14.0,-999.0,78,-99.99,,,0.09,weatherlink.com 1.10,2013-09-21 17:27:00,
2013-09-21 13:42:00,69.3,62.0,29.57,WSW,256,13.0,-999.0,78,-99.99,,,0.09,weatherlink.com 1.10,2013-09-21 17:42:00,
2013-09-21 14:12:00,68.8,62.0,29.57,SW,235,6.0,-999.0,79,-99.99,,,0.00,weatherlink.com 1.10,2013-09-21 18:12:00,
2013-09-21 14:27:00,68.6,62.0,29.57,WSW,246,4.0,-999.0,79,-99.99,,,0.00,weatherlink.com 1.10,2013-09-21 18:27:00,
2013-09-21 14:42:00,66.7,62.0,29.59,WNW,283,7.0,-999.0,85,-99.99,,,0.04,weatherlink.com 1.10,2013-09-21 18:42:00,
2013-09-21 14:57:00,65.4,63.0,29.59,SW,236,8.0,-999.0,90,-99.99,,,0.08,weatherlink.com 1.10,2013-09-21 18:57:00,
2013-09-21 15:12:00,64.2,62.0,29.59,NW,310,6.0,-999.0,93,-99.99,,,0.15,weatherlink.com 1.10,2013-09-21 19:12:00,
2013-09-21 15:27:00,62.9,61.0,29.60,WNW,286,0.0,-999.0,94,-99.99,,,0.21,weatherlink.com 1.10,2013-09-21 19:27:00,
2013-09-21 15:42:00,62.2,61.0,29.60,WNW,288,1.0,-999.0,95,-99.99,,,0.26,weatherlink.com 1.10,2013-09-21 19:42:00,
2013-09-21 16:28:00,61.8,61.0,29.60,WNW,283,5.0,-999.0,96,-99.99,,,0.38,weatherlink.com 1.10,2013-09-21 20:28:00,
2013-09-21 16:43:00,61.1,60.0,29.61,NE,40,4.0,-999.0,96,-99.99,,,0.41,weatherlink.com 1.10,2013-09-21 20:43:00,
2013-09-21 17:13:00,60.4,59.0,29.62,NW,306,0.0,-999.0,96,-99.99,,,0.47,weatherlink.com 1.10,2013-09-21 21:13:00,
2013-09-21 17:28:00,60.2,59.0,29.62,West,260,1.0,-999.0,96,-99.99,,,0.50,weatherlink.com 1.10,2013-09-21 21:28:00,
2013-09-21 17:43:00,59.9,59.0,29.62,WNW,290,2.0,-999.0,96,-99.99,,,0.52,weatherlink.com 1.10,2013-09-21 21:43:00,
2013-09-21 17:58:00,59.6,59.0,29.62,West,280,3.0,-999.0,96,-99.99,,,0.55,weatherlink.com 1.10,2013-09-21 21:58:00,
2013-09-21 18:13:00,59.4,59.0,29.62,WSW,246,0.0,-999.0,97,-99.99,,,0.58,weatherlink.com 1.10,2013-09-21 22:13:00,
2013-09-21 18:28:00,59.3,59.0,29.62,WSW,239,0.0,-999.0,97,-99.99,,,0.60,weatherlink.com 1.10,2013-09-21 22:28:00,
2013-09-21 18:58:00,59.2,58.0,29.62,WSW,254,2.0,-999.0,97,-99.99,,,0.64,weatherlink.com 1.10,2013-09-21 22:58:00,
2013-09-21 19:13:00,58.9,58.0,29.62,WSW,239,0.0,-999.0,97,-99.99,,,0.66,weatherlink.com 1.10,2013-09-21 23:13:00,
2013-09-21 19:43:00,58.7,58.0,29.61,SW,227,0.0,-999.0,97,-99.99,,,0.68,weatherlink.com 1.10,2013-09-21 23:43:00,
2013-09-21 19:58:00,58.6,58.0,29.61,SW,227,0.0,-999.0,97,-99.99,,,0.68,weatherlink.com 1.10,2013-09-21 23:58:00,
2013-09-21 20:28:00,58.7,58.0,29.61,SW,227,0.0,-999.0,97,-99.99,,,0.69,weatherlink.com 1.10,2013-09-22 00:28:00,
2013-09-21 20:43:00,58.7,58.0,29.61,SW,227,0.0,-999.0,97,-99.99,,,0.70,weatherlink.com 1.10,2013-09-22 00:43:00,
2013-09-21 20:58:00,58.9,58.0,29.61,SW,227,0.0,-999.0,97,-99.99,,,0.70,weatherlink.com 1.10,2013-09-22 00:58:00,
2013-09-21 21:13:00,59.0,59.0,29.61,SW,227,0.0,-999.0,98,-99.99,,,0.70,weatherlink.com 1.10,2013-09-22 01:13:00,
2013-09-21 21:28:00,58.9,58.0,29.61,SW,227,0.0,-999.0,98,-99.99,,,0.70,weatherlink.com 1.10,2013-09-22 01:28:00,
2013-09-21 21:58:00,58.4,58.0,29.61,SW,227,0.0,-999.0,98,-99.99,,,0.70,weatherlink.com 1.10,2013-09-22 01:58:00,
2013-09-21 22:13:00,58.2,58.0,29.62,SW,227,1.0,-999.0,98,-99.99,,,0.70,weatherlink.com 1.10,2013-09-22 02:13:00,
2013-09-21 22:28:00,58.2,57.0,29.62,SW,227,0.0,-999.0,97,-99.99,,,0.70,weatherlink.com 1.10,2013-09-22 02:28:00,
2013-09-21 22:43:00,58.2,57.0,29.63,West,269,4.0,-999.0,97,-99.99,,,0.70,weatherlink.com 1.10,2013-09-22 02:43:00,
2013-09-21 22:58:00,58.4,58.0,29.62,West,262,4.0,-999.0,97,-99.99,,,0.70,weatherlink.com 1.10,2013-09-22 02:58:00,
2013-09-21 23:13:00,58.5,58.0,29.63,West,268,2.0,-999.0,97,-99.99,,,0.70,weatherlink.com 1.10,2013-09-22 03:13:00,
2013-09-21 23:28:00,58.6,58.0,29.63,WSW,255,3.0,-999.0,97,-99.99,,,0.70,weatherlink.com 1.10,2013-09-22 03:28:00,
2013-09-21 23:43:00,58.4,57.0,29.64,NW,304,4.0,-999.0,96,-99.99,,,0.71,weatherlink.com 1.10,2013-09-22 03:43:00,
2013-09-21 23:58:00,57.4,56.0,29.65,West,279,2.0,-999.0,96,-99.99,,,0.71,weatherlink.com 1.10,2013-09-22 03:58:00,